Location: Rounton
(54.4000°N, 1.3500°W)
Time: 13:26:41
(UTC+00:00)

Transit 2A Rocket - Pass Details

Date: 05 December 2021
Orbit: 584 x 918 km, 66.7° (Epoch: 17 January)

Event Time Altitude Azimuth Distance (km) Brightness Sun altitude
Rises 12:31:54 0° 302° (WNW) 3,537 8.2 12.8°
Reaches altitude 10° 12:34:50 10° 314° (NW) 2,614 7.5 12.7°
Maximum altitude 12:40:00 28° 11° (NNE) 1,675 6.3 12.6°
Drops below altitude 10° 12:45:09 10° 69° (ENE) 2,593 7.5 12.4°
Sets 12:48:02 0° 81° (E) 3,504 8.2 12.4°
